#timestamp,LO_Frequency,Hit,StdDev 
1563134415.3,286046993.9,Y
1563134435.1,286046997.7,P
1563134455.9,286046997.9,P
1563134475.7,286046997.9,P
1563134495.5,286046997.8,Y
1563134515.4,286046998.8,P
1563134535.2,286047000.3,N
1563134555.1,286047000.5,N
1563134556.0,286047000.5,N
1563134575.8,286047002.8,N
1563134595.6,286047002.4,N
1563134615.5,286047000.5,N
1563134635.3,286046998.8,N
1563134655.2,286046999.9,N
1563134675.9,286046999.0,N
1563134695.7,286046998.6,N
1563134715.6,286046997.0,N
1563134735.4,286046998.9,N
1563134755.2,286046999.0,N
1563134775.1,286046998.6,N
1563134776.0,286046998.6,N
1563134795.8,286047000.6,N
1563134815.7,286047000.5,N
1563134835.5,286046999.1,N
1563134855.3,286046999.5,N
1563134875.2,286046995.3,Y
1563134895.0,286046996.7,P
1563134895.9,286046996.7,N
1563134915.8,286046999.5,N
1563134935.6,286046997.7,N
1563134955.4,286046996.9,N
1563134975.3,286046996.7,N
1563134995.1,286046995.6,Y
1563135015.9,286047001.1,P
1563135035.7,286047000.1,N
1563135055.5,286047003.9,N
1563135075.4,286047004.1,N
1563135095.2,286047004.3,N
1563135115.0,286047001.6,N
1563135115.9,286047001.6,N
1563135135.8,286047003.5,N
1563135155.6,286047002.8,N
1563135175.5,286047000.3,N
1563135195.3,286047002.1,N
1563135215.1,286047001.8,N
1563135235.9,286047005.4,N
1563135255.7,286047005.0,N
1563135275.5,286047005.5,N
1563135295.4,286047004.2,N
1563135315.2,286047004.1,N
1563135335.1,286047003.9,N
1563135336.0,286047003.9,N
1563135355.8,286047004.4,N
1563135375.6,286047001.7,N
1563135395.5,286047003.8,N
1563135415.3,286047001.9,N
1563135435.2,286047000.2,N
1563135455.9,286046998.2,N
1563135475.7,286046998.8,N
1563135495.6,286047000.6,N
1563135515.4,286047002.2,N
1563135535.2,286047002.7,N
1563135555.1,286047000.1,N
1563135556.0,286047000.1,N
1563135575.8,286047001.4,N
1563135595.7,286047001.8,N
1563135615.5,286047001.4,N
1563135635.3,286047002.2,N
1563135655.2,286047001.6,N
1563135675.0,286047004.2,N
1563135675.9,286047004.2,N
1563135695.8,286047003.2,N
1563135715.6,286047003.0,N
1563135735.4,286047005.1,N
1563135755.3,286047003.0,N
1563135775.1,286047003.7,N
1563135795.8,286047003.4,N
1563135815.7,286047003.0,N
1563135835.5,286047003.6,N
1563135855.4,286047001.9,N
1563135875.2,286047004.0,N
1563135895.0,286047003.5,N
1563135895.9,286047003.5,N
1563135915.8,286047002.3,N
1563135935.6,286047001.7,N
1563135955.5,286047001.3,N
1563135975.3,286047002.1,N
1563135995.1,286047002.8,N
1563136015.9,286047002.4,N
1563136035.7,286047000.0,N
1563136055.5,286047000.1,N
1563136075.4,286047001.3,N
1563136095.2,286047003.7,N
1563136115.0,286047003.2,N
1563136115.9,286047003.2,N
1563136135.8,286047003.9,Y
1563136155.6,286047001.0,P
1563136175.4,286047000.0,N
1563136195.5,286047000.0,N
1563136215.3,286047000.1,N
1563136235.1,286047002.3,N
1563136255.9,286047000.9,N
1563136275.7,286047000.7,N
1563136295.6,286047000.3,N
1563136315.4,286047000.2,N
1563136335.2,286047001.1,N
1563136355.1,286046998.4,N
1563136356.0,286046998.4,N
1563136375.8,286046998.4,N
1563136395.6,286046998.6,N
1563136415.5,286046999.3,N
1563136435.3,286046999.4,N
1563136455.2,286046998.3,N
1563136475.9,286046999.4,N
1563136495.7,286046999.3,N
1563136515.6,286046996.7,N
1563136535.4,286046997.6,N
1563136555.3,286046997.1,N
1563136575.1,286046999.4,N
1563136576.0,286046999.4,N
1563136595.8,286047001.0,N
1563136615.7,286047000.9,N
1563136635.5,286047000.1,N
1563136655.3,286047000.9,N
1563136675.2,286046999.0,N
1563136695.0,286047000.6,N
1563136695.9,286047000.6,N
1563136715.8,286047000.1,N
1563136735.6,286047002.5,N
1563136755.4,286047001.0,N
1563136775.3,286047001.5,N
1563136795.1,286047000.4,N
1563136815.8,286046999.7,N
1563136835.7,286047001.8,N
1563136855.5,286047003.8,N
1563136875.4,286047003.0,N
1563136895.2,286047003.2,N
1563136915.0,286047005.6,Y
1563136916.0,286047005.6,P
1563136935.8,286047005.0,N
1563136955.6,286047006.9,N
1563136975.5,286047007.0,N
1563136995.3,286047006.7,N
1563137015.1,286047006.5,N
1563137035.9,286047008.8,Y
1563137055.7,286047001.9,P
1563137075.6,286047002.0,N
1563137095.4,286047002.3,N
1563137115.2,286046999.9,N
1563137135.1,286046998.5,N
1563137136.0,286046998.5,N
1563137155.8,286046998.8,N
1563137175.7,286046998.8,N
1563137195.5,286046998.3,N
1563137215.3,286046998.9,N
1563137235.2,286046998.5,N
1563137255.0,286046996.8,N
1563137255.9,286046996.8,N
1563137275.7,286046999.4,N
1563137295.6,286046999.3,N
1563137315.4,286046996.5,N
1563137335.3,286046996.5,N
1563137355.1,286046997.2,N
1563137375.0,286046997.6,N
1563137375.9,286046997.6,N
1563137395.8,286046996.9,N
1563137415.6,286046999.5,N
1563137435.5,286046997.0,N
1563137455.3,286046996.6,N
1563137475.1,286046996.7,N
1563137495.9,286046997.3,N
1563137515.7,286046997.9,N
1563137535.5,286046997.8,N
1563137555.4,286046995.0,N
1563137575.2,286046998.0,N
1563137595.1,286046995.2,N
1563137596.0,286046995.2,N
1563137615.8,286046995.7,N
1563137635.6,286046996.2,N
1563137655.9,286046995.3,Y
1563137675.7,286046998.8,P
1563137695.6,286047001.2,N
1563137715.4,286046998.8,N
1563137735.2,286046996.8,N
1563137755.1,286046999.3,N
1563137756.0,286046999.3,N
1563137775.8,286046999.5,N
1563137795.7,286046998.6,N
1563137815.5,286046996.8,N
1563137835.3,286046999.0,N
1563137855.2,286046996.8,N
1563137875.0,286046998.3,N
1563137875.9,286046998.3,N
1563137895.8,286046999.4,N
1563137915.6,286046997.7,N
1563137935.4,286046995.1,Y
1563137955.3,286046997.1,P
1563137975.5,286046997.0,P
1563137995.3,286046997.0,P
